Terminal Aerodrome Forecast
Issued by NWS

Home | Current Version | Previous Version | Text Only | Print | Product List | Glossary On
Versions: 1 2 3 4 5 6 7 8 9 10 11 12 13
971
FTUS45 KPSR 221130
TAFIPL
TAF
KIPL 221130Z 2212/2312 27020G30KT P6SM FEW250
     FM230300 27012KT P6SM SKC=

USA.gov is the U.S. government's official web portal to all federal, state and local government web resources and services.